Stations météo

réclame
Mon MeteoGroup
Sveg A, Suède (2327): Température de l'air & dewpoint: 16.08.2018 01:00:00 - 22.08.2018 01:00:00 (CEST)Sveg A, Suède (2327): Vitesse du vent & gusts: 16.08.2018 01:00:00 - 22.08.2018 01:00:00 (CEST)Sveg A, Suède (2327): Direction du vent: 16.08.2018 01:00:00 - 22.08.2018 01:00:00 (CEST)Sveg A, Suède (2327): reduced air pressure: 16.08.2018 01:00:00 - 22.08.2018 01:00:00 (CEST)Sveg A, Suède (2327): visibility: 16.08.2018 01:00:00 - 22.08.2018 01:00:00 (CEST)Sveg A, Suède (2327): Quantités de précipitations: 16.08.2018 01:00:00 - 22.08.2018 01:00:00 (CEST)
Date & Time tt [°C] td [°C] ff [km/h] ff [knt] fx [km/h] fx [knt] dd ppp [hPa] vv [km] rr [mm]
22.08.2018 01:00:00 -0,2 -0,7 5 3 7 4 E 1020,4 50 0,0
22.08.2018 00:00:00 0,7 0,4 2 1 6 3 ENE 1020,7 39 0,0
21.08.2018 23:00:00 2,1 1,2 2 1 5 3 SE 1020,6 50 0,0
21.08.2018 22:00:00 4,1 3,4 3 2 14 8 SSE 1020,1 50 0,0
21.08.2018 21:00:00 5,6 3,3 5 3 7 4 W 1019,5 50 0,0
21.08.2018 20:00:00 13,1 3,5 5 3 18 10 WNW 1017,9 50 0,0
21.08.2018 19:00:00 13,8 3,3 15 8 27 15 NW 1017,8 50 0,0
21.08.2018 18:00:00 15,2 2,4 16 8 32 17 WNW 1017,7 47 0,0
21.08.2018 17:00:00 15,1 1,6 19 10 38 20 NW 1017,4 49 0,0
21.08.2018 16:00:00 15,6 2,0 19 10 33 18 WNW 1017,2 45 0,0
21.08.2018 15:00:00 14,3 1,6 22 12 40 21 WNW 1017,4 38 0,0
21.08.2018 14:00:00 14,2 3,0 23 13 39 21 NW 1017,6 44 0,0
21.08.2018 13:00:00 12,9 3,8 22 12 41 22 NW 1017,8 43 0,4
21.08.2018 12:00:00 12,8 2,1 27 15 40 21 WNW 1017,4 48 0,0
21.08.2018 11:00:00 11,9 2,6 21 11 35 19 NW 1017,4 50 0,0
21.08.2018 10:00:00 11,3 2,8 21 12 38 20 NW 1017,1 49 0,0
21.08.2018 09:00:00 9,9 3,2 16 8 30 16 NW 1016,9 49 0,0
21.08.2018 08:00:00 8,8 3,4 16 9 35 19 NW 1016,4 49 0,0
21.08.2018 07:00:00 6,8 2,9 8 5 26 14 NNW 1016,3 50 0,0
21.08.2018 06:00:00 5,8 2,4 16 9 30 16 WNW 1016,0 50 0,0
21.08.2018 05:00:00 4,7 2,9 9 5 18 10 NW 1015,6 50 0,0
21.08.2018 04:00:00 1,8 1,2 10 5 16 8 W 1015,8 50 0,0
21.08.2018 03:00:00 4,0 3,1 5 3 12 6 WNW 1015,5 50 0,0
21.08.2018 02:00:00 3,7 3,0 11 6 16 9 W 1015,0 50 0,0
21.08.2018 01:00:00 2,1 1,7 6 3 11 6 WSW 1014,7 6 0,0
21.08.2018 00:00:00 4,3 3,7 10 6 13 7 W 1013,9 50 0,0
20.08.2018 23:00:00 3,5 3,1 7 4 8 4 W 1013,4 50 0,0
20.08.2018 22:00:00 5,5 4,0 7 4 16 8 WNW 1012,5 50 0,0
20.08.2018 21:00:00 8,9 5,5 12 6 16 9 WNW 1011,4 50 0,0
20.08.2018 20:00:00 11,0 6,9 13 7 19 10 WNW 1010,9 50 -
20.08.2018 19:00:00 10,3 7,5 14 8 24 13 N 1010,6 14 -
20.08.2018 18:00:00 11,1 7,4 5 3 32 17 NNW 1010,2 38 -
20.08.2018 17:00:00 13,0 4,7 9 5 31 17 N 1009,5 50 -
20.08.2018 16:00:00 14,4 3,2 15 8 27 15 NW 1009,1 50 -
20.08.2018 15:00:00 14,4 3,2 16 9 29 16 NW 1009,0 50 -
20.08.2018 14:00:00 14,4 2,9 13 7 23 12 W 1009,1 49 -
20.08.2018 13:00:00 13,4 2,3 9 5 24 13 NNW 1009,4 46 -
20.08.2018 12:00:00 12,5 3,4 14 7 19 11 NW 1009,9 50 -
20.08.2018 11:00:00 11,7 4,4 12 7 - - WNW 1010,4 50 -
20.08.2018 10:00:00 11,3 5,0 14 8 22 12 WNW 1010,2 50 0,0
20.08.2018 09:00:00 10,6 5,1 12 6 22 12 NW 1010,4 50 0,0
20.08.2018 08:00:00 9,6 5,2 14 7 18 10 WNW 1010,4 50 0,0
20.08.2018 07:00:00 8,7 5,3 6 4 13 7 W 1010,6 50 0,0
20.08.2018 06:00:00 7,9 5,4 9 5 11 6 WNW 1010,8 50 0,0
20.08.2018 05:00:00 7,4 5,4 2 1 6 4 WNW 1011,0 50 0,0
20.08.2018 04:00:00 6,4 5,4 5 3 7 4 NW 1011,2 50 0,0
20.08.2018 03:00:00 5,0 4,6 6 3 8 4 W 1011,5 50 0,0
20.08.2018 02:00:00 5,6 5,0 3 2 5 3 WNW 1011,5 50 0,0
20.08.2018 01:00:00 5,7 4,7 2 1 6 4 WNW 1011,2 50 0,0
20.08.2018 00:00:00 7,2 4,8 3 2 12 7 ENE 1011,1 44 0,0
19.08.2018 23:00:00 7,9 5,5 1 1 11 6 WNW 1010,9 43 0,0
19.08.2018 22:00:00 11,9 5,7 5 3 18 10 NE 1009,5 50 0,0
19.08.2018 21:00:00 14,2 5,5 6 3 14 8 NE 1008,6 50 0,0
19.08.2018 20:00:00 17,0 4,0 6 4 9 5 NE 1007,8 50 0,0
19.08.2018 19:00:00 16,9 3,6 6 4 20 11 NW 1007,9 50 0,0
19.08.2018 18:00:00 19,6 2,0 12 7 26 14 W 1007,4 48 0,0
19.08.2018 17:00:00 20,0 2,0 11 6 31 17 W 1007,5 50 0,0
19.08.2018 16:00:00 18,2 3,3 11 6 30 16 NW 1007,9 50 0,0
19.08.2018 15:00:00 19,2 2,1 21 11 36 19 W 1007,7 41 0,0
19.08.2018 14:00:00 18,9 2,7 16 9 40 21 WNW 1007,6 50 0,0
19.08.2018 13:00:00 16,7 4,1 16 8 35 19 WNW 1007,8 50 0,0
19.08.2018 12:00:00 17,6 5,2 22 12 39 21 W 1007,5 50 0,0
19.08.2018 11:00:00 16,2 6,3 13 7 24 13 W 1007,5 47 0,0
19.08.2018 10:00:00 14,6 5,9 18 10 27 14 WSW 1007,4 50 0,0
19.08.2018 09:00:00 13,5 6,6 15 8 24 13 WSW 1007,2 50 0,0
19.08.2018 08:00:00 12,4 6,4 14 7 20 11 WSW 1006,9 50 0,0
19.08.2018 07:00:00 11,0 6,7 9 5 16 9 WSW 1006,8 47 0,0
19.08.2018 06:00:00 10,2 6,9 10 5 21 12 WSW 1006,1 50 0,0
19.08.2018 05:00:00 10,2 6,5 10 6 27 14 W 1005,0 50 0,0
19.08.2018 04:00:00 10,8 6,7 12 7 27 15 W 1004,4 50 0,0
19.08.2018 03:00:00 11,4 7,7 14 7 34 18 WSW 1003,7 50 0,0
19.08.2018 02:00:00 11,4 7,9 16 9 30 16 WSW 1003,1 50 0,0
19.08.2018 01:00:00 11,7 7,6 16 9 30 16 WSW 1002,7 50 0,0
19.08.2018 00:00:00 11,7 8,2 13 7 45 24 W 1002,4 47 0,0
18.08.2018 23:00:00 12,8 9,1 26 14 45 25 WSW 1001,3 50 0,0
18.08.2018 22:00:00 13,3 9,7 17 9 35 19 SW 1000,8 50 0,0
18.08.2018 21:00:00 13,8 11,0 14 8 33 18 SW 1000,8 50 0,0
18.08.2018 20:00:00 14,7 11,1 11 6 32 18 SW 1000,6 50 0,0
18.08.2018 19:00:00 13,7 11,6 12 6 29 16 SSW 1001,2 50 0,0
18.08.2018 18:00:00 13,3 11,7 19 10 38 21 S 1002,0 13 0,0
18.08.2018 17:00:00 14,1 11,3 19 10 38 21 SSE 1002,5 50 0,0
18.08.2018 16:00:00 15,0 10,2 20 11 39 21 S 1003,7 50 0,0
18.08.2018 15:00:00 14,8 10,0 16 8 42 23 S 1004,9 50 0,0
18.08.2018 14:00:00 15,2 9,1 19 10 49 26 SSW 1005,8 50 0,0
18.08.2018 13:00:00 15,2 8,7 22 12 50 27 SSW 1006,0 50 0,0
18.08.2018 12:00:00 15,7 7,5 17 9 40 21 SW 1006,2 48 0,0
18.08.2018 11:00:00 15,4 8,2 18 10 37 20 SSW 1006,7 46 0,0
18.08.2018 10:00:00 14,7 7,7 21 11 41 22 SSW 1007,3 41 0,0
18.08.2018 09:00:00 13,6 8,4 13 7 26 14 S 1008,0 50 0,0
18.08.2018 08:00:00 10,8 9,1 4 2 11 6 SSE 1009,3 50 0,0
18.08.2018 07:00:00 9,4 8,5 7 4 14 8 SE 1009,8 50 0,0
18.08.2018 06:00:00 6,3 6,2 8 5 13 7 SSE 1010,6 50 0,0
18.08.2018 05:00:00 3,3 3,2 4 2 12 7 ESE 1011,4 43 0,0
18.08.2018 04:00:00 5,4 5,4 5 3 11 6 SSE 1011,1 3,6 0,0
18.08.2018 03:00:00 6,0 5,9 5 3 10 5 SE 1011,2 34 0,0
18.08.2018 02:00:00 6,6 6,2 4 2 6 4 E 1010,9 26 0,0
18.08.2018 01:00:00 8,4 7,5 4 2 12 7 E 1010,7 50 0,0
18.08.2018 00:00:00 11,3 8,0 7 4 21 12 SW 1009,7 50 0,0
17.08.2018 23:00:00 8,6 8,0 8 4 12 7 ENE 1010,0 50 0,0
17.08.2018 22:00:00 11,3 8,5 7 4 21 11 SW 1009,2 50 0,0
17.08.2018 21:00:00 11,9 9,3 10 6 29 16 SSW 1009,0 50 0,0
17.08.2018 20:00:00 15,2 6,5 17 9 36 19 W 1008,3 50 0,0
17.08.2018 19:00:00 17,5 5,4 21 11 41 22 WSW 1007,4 50 0,0
17.08.2018 18:00:00 18,7 5,2 19 10 37 20 SW 1006,9 49 0,0
17.08.2018 17:00:00 20,2 4,6 21 11 40 22 WSW 1006,4 45 0,0
17.08.2018 16:00:00 19,3 5,0 15 8 42 23 SW 1006,8 50 0,0
17.08.2018 15:00:00 20,1 5,0 17 9 44 24 WSW 1007,1 47 0,0
17.08.2018 14:00:00 19,3 6,7 22 12 46 25 SW 1007,2 47 0,0
17.08.2018 13:00:00 19,2 8,8 18 10 44 24 SW 1007,2 43 0,0
17.08.2018 12:00:00 17,8 9,7 18 10 39 21 WSW 1007,4 50 0,0
17.08.2018 11:00:00 16,1 11,7 10 6 34 18 SSW 1007,6 50 0,0
17.08.2018 10:00:00 16,8 10,0 18 10 43 23 SW 1007,4 50 0,0
17.08.2018 09:00:00 16,5 10,4 15 8 39 21 SSW 1007,1 50 0,0
17.08.2018 08:00:00 15,3 11,1 14 8 30 16 SSW 1006,9 50 0,0
17.08.2018 07:00:00 14,6 11,6 10 5 28 15 SSW 1006,8 37 0,0
17.08.2018 06:00:00 13,8 11,5 6 4 23 12 SW 1006,6 50 0,0
17.08.2018 05:00:00 14,3 12,7 14 8 37 20 WSW 1006,3 14 0,0
17.08.2018 04:00:00 17,7 12,8 16 9 41 22 S 1004,9 38 0,0
17.08.2018 03:00:00 17,7 12,8 12 7 37 20 S 1004,7 45 0,0
17.08.2018 02:00:00 17,4 12,5 18 10 39 21 S 1005,1 40 0,0
17.08.2018 01:00:00 17,5 12,6 20 11 39 21 S 1005,2 40 0,0
17.08.2018 00:00:00 17,4 12,5 22 12 46 25 S 1005,9 50 0,0
16.08.2018 23:00:00 17,1 12,6 20 11 39 21 SSE 1005,9 50 0,0
16.08.2018 22:00:00 17,0 12,9 21 11 36 20 S 1006,6 50 0,0
16.08.2018 21:00:00 17,8 12,5 15 8 36 20 S 1006,6 50 0,0
16.08.2018 20:00:00 18,5 12,8 17 9 41 22 SSE 1006,6 35 0,0
16.08.2018 19:00:00 19,2 11,7 14 8 41 22 S 1006,9 50 0,0
16.08.2018 18:00:00 18,8 12,5 17 9 34 18 S 1007,4 50 0,0
16.08.2018 17:00:00 19,0 13,0 16 9 45 24 SSW 1007,9 50 0,0
16.08.2018 16:00:00 19,5 13,0 20 11 43 23 S 1007,8 46 0,0
16.08.2018 15:00:00 19,6 12,8 18 10 33 18 S 1008,0 50 0,0
16.08.2018 14:00:00 19,4 12,7 21 11 42 23 SSW 1008,0 50 0,0
16.08.2018 13:00:00 18,9 12,2 21 11 40 22 S 1008,2 46 0,0
16.08.2018 12:00:00 18,1 11,6 14 8 34 19 S 1008,8 46 0,0
16.08.2018 11:00:00 17,4 12,1 15 8 32 17 S 1009,0 50 0,0
16.08.2018 10:00:00 16,4 12,6 15 8 35 19 S 1009,1 50 0,0
16.08.2018 09:00:00 16,2 12,6 13 7 24 13 S 1009,2 46 0,0
16.08.2018 08:00:00 15,8 12,0 6 3 24 13 S 1009,3 50 0,0
16.08.2018 07:00:00 14,6 11,7 8 4 19 10 ESE 1009,6 50 0,0
16.08.2018 06:00:00 13,6 11,1 9 5 16 8 SE 1010,1 50 0,0
16.08.2018 05:00:00 12,8 10,5 8 4 16 9 ESE 1010,3 50 -
16.08.2018 04:00:00 11,9 9,8 5 3 16 8 SSE 1010,7 50 -
16.08.2018 03:00:00 13,0 9,6 2 1 13 7 SSE 1010,3 50 -
16.08.2018 02:00:00 13,1 9,4 6 3 20 11 S 1010,6 50 -
16.08.2018 01:00:00 14,1 9,5 13 7 21 11 S 1010,6 50 -

tt = Température de l'air
td = dewpoint
ff = Vitesse du vent
fx = gusts
dd = Direction du vent
ppp = reduced air pressure
vv = visibility
rr = Quantités de précipitations

stations d'obs. à proximité